Weather History for Hutchinson, KS

Change the Weather History Date:

Thursday, December 26, 2013

  Actual Average Record
Temperature  
Mean Temperature 29 °F -  
Max Temperature 42 °F 42 °F 66 °F (2008)
Min Temperature 16 °F 17 °F 6 °F (2012)
Degree Days  
Heating Degree Days 36    
Moisture  
Dew Point 19 °F    
Average Humidity 77    
Maximum Humidity 92    
Minimum Humidity 55    
Precipitation  
Precipitation 0.00 in - - ()
Sea Level Pressure  
Sea Level Pressure 30.30 in    
Wind  
Wind Speed 2 mph (SW)    
Max Wind Speed 14 mph    
Max Gust Speed -    
Visibility 6 miles    
Events Fog    
Averages and records for this station are not official NWS values.
T = Trace of Precipitation, MM = Missing Value Source: NWS Daily Summary

Daily Weather History Graph

Daily Weather History Graph

Search for Another Location

Airport:

Trip Planner

Search our weather history database for the weather conditions in past years. The results will help you decide how hot, cold, wet, or windy it might be!

Date:

Astronomy

Dec. 26, 2013 Rise Set
Actual Time 7:46 AM CST 5:18 PM CST
Civil Twilight 7:16 AM CST 5:47 PM CST
Nautical Twilight 6:43 AM CST 6:20 PM CST
Astronomical Twilight 6:11 AM CST 6:52 PM CST
Moon 1:20 AM CST (12/26) 12:50 PM CST (12/26)
Length of Visible Light 10h 31m
Length of Day
9h 32m
Last Quarter, 38% of the Moon is Illuminated
Dec 26
Last Quarter
Jan 1
New
Jan 7
First Quarter
Jan 15
Full
Jan 23
Last Quarter

Hourly Weather History & Observations

Time (CST) Temp. Windchill Dew Point Humidity Pressure Visibility Wind Dir Wind Speed Gust Speed Precip Events Conditions
12:06 AM 18.0 °F - 12.9 °F 81% 30.35 in 0.5 mi Calm Calm - N/A   Haze
12:52 AM 18.0 °F - 12.9 °F 81% 30.37 in 0.5 mi Calm Calm - N/A   Haze
1:02 AM 19.0 °F - 12.9 °F 77% 30.33 in 2.0 mi Calm Calm - N/A   Haze
1:08 AM 19.0 °F - 12.9 °F 77% 30.33 in 1.0 mi Calm Calm - N/A   Haze
1:13 AM 16.0 °F - 10.9 °F 81% 30.33 in 0.2 mi Calm Calm - N/A   Haze
1:28 AM 17.1 °F - 10.9 °F 77% 30.32 in 0.8 mi Calm Calm - N/A   Haze
1:38 AM 16.0 °F - 10.9 °F 81% 30.32 in 1.0 mi Calm Calm - N/A   Haze
1:42 AM 17.1 °F - 10.9 °F 77% 30.32 in 3.0 mi Calm Calm - N/A   Haze
1:52 AM 17.1 °F - 12.0 °F 81% 30.36 in 8.0 mi Calm Calm - N/A   Clear
2:52 AM 21.9 °F - 16.0 °F 78% 30.35 in 10.0 mi Calm Calm - N/A   Clear
3:52 AM 19.0 °F 12.3 °F 12.9 °F 77% 30.34 in 10.0 mi SSW 4.6 mph - N/A   Clear
4:52 AM 23.0 °F 13.9 °F 17.1 °F 78% 30.31 in 10.0 mi SW 8.1 mph - N/A   Clear
5:52 AM 23.0 °F 15.8 °F 18.0 °F 81% 30.30 in 10.0 mi SSW 5.8 mph - N/A   Clear
6:52 AM 21.9 °F 17.2 °F 17.1 °F 82% 30.31 in 10.0 mi SW 3.5 mph - N/A   Clear
7:52 AM 21.9 °F 14.5 °F 17.1 °F 82% 30.30 in 10.0 mi South 5.8 mph - N/A   Clear
8:52 AM 25.0 °F 20.7 °F 21.0 °F 85% 30.30 in 10.0 mi South 3.5 mph - N/A   Clear
9:52 AM 30.9 °F 25.2 °F 23.0 °F 72% 30.32 in 10.0 mi SW 5.8 mph - N/A   Clear
10:52 AM 36.0 °F 33.3 °F 25.0 °F 64% 30.30 in 10.0 mi South 3.5 mph - N/A   Clear
11:52 AM 39.0 °F 31.0 °F 25.0 °F 57% 30.27 in 10.0 mi SW 13.8 mph - N/A   Clear
12:52 PM 39.9 °F 32.9 °F 26.1 °F 58% 30.25 in 10.0 mi SW 11.5 mph - N/A   Clear
1:52 PM 42.1 °F 37.1 °F 27.0 °F 55% 30.24 in 10.0 mi WSW 8.1 mph - N/A   Clear
2:52 PM 42.1 °F 36.6 °F 28.0 °F 58% 30.22 in 10.0 mi WSW 9.2 mph - N/A   Clear
3:52 PM 42.1 °F 37.7 °F 28.0 °F 58% 30.23 in 10.0 mi SW 6.9 mph - N/A   Clear
4:52 PM 41.0 °F 38.0 °F 27.0 °F 57% 30.25 in 10.0 mi SW 4.6 mph - N/A   Clear
5:52 PM 32.0 °F - 25.0 °F 75% 30.27 in 10.0 mi Calm Calm - N/A   Clear
6:52 PM 30.0 °F - 25.0 °F 82% 30.28 in 10.0 mi Calm Calm - N/A   Clear
7:52 PM 28.0 °F 24.2 °F 23.0 °F 81% 30.31 in 10.0 mi NNW 3.5 mph - N/A   Clear
8:52 PM 25.0 °F 20.7 °F 21.9 °F 88% 30.31 in 9.0 mi NNW 3.5 mph - N/A   Clear
9:52 PM 21.9 °F - 19.9 °F 92% 30.31 in 10.0 mi Calm Calm - N/A   Clear
10:52 PM 24.1 °F - 21.9 °F 91% 30.32 in 6.0 mi Calm Calm - N/A   Clear
11:13 PM 21.0 °F - 19.0 °F 92% 30.30 in 2.5 mi Calm Calm - N/A   Clear
11:24 PM 19.0 °F - 16.0 °F 88% 30.30 in 1.0 mi Calm Calm - N/A   Clear
11:31 PM 21.9 °F - 17.1 °F 82% 30.30 in 0.5 mi Calm Calm - N/A   Haze
11:39 PM 21.9 °F - 19.0 °F 89% 30.30 in 0.2 mi Calm Calm - N/A Fog Light Freezing Fog
11:47 PM 23.0 °F - 21.0 °F 92% 30.32 in 1.2 mi Calm Calm - N/A   Clear